Weather History for Faribault, MN

Change the Weather History Date:

Tuesday, November 19, 2013

  Actual Average Record
Temperature  
Mean Temperature 34 °F -  
Max Temperature 48 °F 40 °F 63 °F (1953)
Min Temperature 19 °F 23 °F 0 °F (1951)
Degree Days  
Heating Degree Days 32    
Moisture  
Dew Point 21 °F    
Average Humidity 55    
Maximum Humidity 86    
Minimum Humidity 34    
Precipitation  
Precipitation 0.00 in - - ()
Sea Level Pressure  
Sea Level Pressure 30.08 in    
Wind  
Wind Speed 8 mph (SE)    
Max Wind Speed 25 mph    
Max Gust Speed 37 mph    
Visibility 10 miles    
Events      
Averages and records for this station are not official NWS values.
T = Trace of Precipitation, MM = Missing Value Source: NWS Daily Summary

Daily Weather History Graph

Daily Weather History Graph

Search for Another Location

Airport:

Trip Planner

Search our weather history database for the weather conditions in past years. The results will help you decide how hot, cold, wet, or windy it might be!

Date:

Astronomy

Nov. 19, 2013 Rise Set
Actual Time 7:14 AM CST 4:42 PM CST
Civil Twilight 6:42 AM CST 5:14 PM CST
Nautical Twilight 6:07 AM CST 5:49 PM CST
Astronomical Twilight 5:33 AM CST 6:23 PM CST
Moon 6:33 PM CST (11/19) 8:55 AM CST (11/19)
Length of Visible Light 10h 31m
Length of Day
9h 27m
Waning Gibbous, 96% of the Moon is Illuminated
Nov 19
Waning Gibbous
Nov 25
Last Quarter
Dec 2
New
Dec 9
First Quarter
Dec 17
Full

Hourly Weather History & Observations

Time (CST) Temp. Windchill Dew Point Humidity Pressure Visibility Wind Dir Wind Speed Gust Speed Precip Events Conditions
12:14 AM 21.2 °F - 15.8 °F 80% 30.25 in 10.0 mi Calm Calm - N/A   Clear
12:33 AM 21.2 °F - 15.8 °F 80% 30.25 in 10.0 mi Calm Calm - N/A   Clear
12:54 AM 23.0 °F - 15.8 °F 74% 30.24 in 10.0 mi Calm Calm - N/A   Clear
1:14 AM 21.2 °F 16.4 °F 15.8 °F 80% 30.24 in 10.0 mi SSE 3.5 mph - N/A   Clear
1:33 AM 24.8 °F - 17.6 °F 74% 30.24 in 10.0 mi Calm Calm - N/A   Clear
1:54 AM 21.2 °F - 15.8 °F 80% 30.24 in 7.0 mi Calm Calm - N/A   Clear
2:14 AM 21.2 °F - 15.8 °F 80% 30.24 in 7.0 mi Calm Calm - N/A   Clear
2:33 AM 21.2 °F - 15.8 °F 80% 30.23 in 7.0 mi Calm Calm - N/A   Clear
2:54 AM 21.2 °F - 15.8 °F 80% 30.23 in 7.0 mi Calm Calm - N/A   Clear
3:14 AM 21.2 °F - 17.6 °F 86% 30.24 in 7.0 mi Calm Calm - N/A   Clear
3:33 AM 19.4 °F - 15.8 °F 86% 30.23 in 7.0 mi Calm Calm - N/A   Clear
3:54 AM 21.2 °F - 15.8 °F 80% 30.22 in 7.0 mi Calm Calm - N/A   Clear
4:14 AM 21.2 °F - 15.8 °F 80% 30.22 in 7.0 mi Calm Calm - N/A   Clear
4:34 AM 21.2 °F 16.4 °F 15.8 °F 80% 30.21 in 10.0 mi ESE 3.5 mph - N/A   Clear
4:54 AM 26.6 °F 19.1 °F 17.6 °F 69% 30.21 in 10.0 mi SE 6.9 mph - N/A   Clear
5:14 AM 24.8 °F 16.9 °F 17.6 °F 74% 30.21 in 10.0 mi ESE 6.9 mph - N/A   Clear
5:34 AM 26.6 °F 19.1 °F 19.4 °F 74% 30.20 in 10.0 mi ESE 6.9 mph - N/A   Clear
5:54 AM 26.6 °F 21.2 °F 19.4 °F 74% 30.19 in 10.0 mi ESE 4.6 mph - N/A   Clear
6:14 AM 26.6 °F 20.0 °F 17.6 °F 69% 30.19 in 10.0 mi ESE 5.8 mph - N/A   Clear
6:34 AM 26.6 °F 20.0 °F 19.4 °F 74% 30.19 in 10.0 mi ESE 5.8 mph - N/A   Clear
6:54 AM 28.4 °F 23.3 °F 19.4 °F 69% 30.18 in 10.0 mi ESE 4.6 mph - N/A   Clear
7:14 AM 28.4 °F 21.2 °F 19.4 °F 69% 30.17 in 10.0 mi SE 6.9 mph - N/A   Clear
7:34 AM 28.4 °F 19.7 °F 19.4 °F 69% 30.16 in 10.0 mi ESE 9.2 mph - N/A   Clear
7:54 AM 30.2 °F 21.3 °F 19.4 °F 64% 30.16 in 10.0 mi ESE 10.4 mph - N/A   Clear
8:14 AM 30.2 °F 21.9 °F 21.2 °F 69% 30.16 in 10.0 mi SE 9.2 mph - N/A   Clear
8:34 AM 33.8 °F 26.4 °F 21.2 °F 60% 30.16 in 10.0 mi SE 9.2 mph - N/A   Clear
8:54 AM 35.6 °F 27.1 °F 21.2 °F 56% 30.15 in 10.0 mi SSE 12.7 mph 18.4 mph N/A   Clear
9:14 AM 37.4 °F 29.8 °F 21.2 °F 52% 30.15 in 10.0 mi SSE 11.5 mph 18.4 mph N/A   Clear
9:34 AM 37.4 °F 28.9 °F 21.2 °F 52% 30.15 in 10.0 mi SSE 13.8 mph - N/A   Clear
9:54 AM 39.2 °F 30.5 °F 21.2 °F 49% 30.15 in 10.0 mi SSE 16.1 mph 21.9 mph N/A   Clear
10:14 AM 42.8 °F 35.1 °F 19.4 °F 39% 30.14 in 10.0 mi SSE 16.1 mph 20.7 mph N/A   Clear
10:34 AM 42.8 °F 35.4 °F 19.4 °F 39% 30.13 in 10.0 mi SSE 15.0 mph 20.7 mph N/A   Clear
10:54 AM 44.6 °F 38.1 °F 19.4 °F 37% 30.13 in 10.0 mi SSE 13.8 mph 21.9 mph N/A   Clear
11:14 AM 44.6 °F 37.4 °F 19.4 °F 37% 30.11 in 10.0 mi SE 16.1 mph 23.0 mph N/A   Clear
11:34 AM 44.6 °F 36.9 °F 19.4 °F 37% 30.10 in 10.0 mi SSE 18.4 mph 21.9 mph N/A   Clear
11:54 AM 44.6 °F 36.9 °F 19.4 °F 37% 30.09 in 10.0 mi SSE 18.4 mph 23.0 mph N/A   Clear
12:14 PM 44.6 °F 37.4 °F 21.2 °F 39% 30.07 in 10.0 mi SSE 16.1 mph 27.6 mph N/A   Clear
12:34 PM 46.4 °F 39.5 °F 21.2 °F 37% 30.06 in 10.0 mi SE 17.3 mph 23.0 mph N/A   Clear
12:54 PM 48.2 °F - 21.2 °F 34% 30.06 in 10.0 mi SSE 17.3 mph 27.6 mph N/A   Clear
1:14 PM 48.2 °F - 23.0 °F 37% 30.05 in 10.0 mi SE 18.4 mph 24.2 mph N/A   Clear
1:34 PM 48.2 °F - 23.0 °F 37% 30.03 in 10.0 mi SSE 17.3 mph 25.3 mph N/A   Clear
1:54 PM 48.2 °F - 23.0 °F 37% 30.02 in 10.0 mi SSE 19.6 mph 24.2 mph N/A   Clear
2:14 PM 48.2 °F - 24.8 °F 40% 30.01 in 10.0 mi SE 15.0 mph 27.6 mph N/A   Clear
2:34 PM 48.2 °F - 24.8 °F 40% 30.01 in 10.0 mi SE 18.4 mph 25.3 mph N/A   Clear
2:54 PM 46.4 °F 39.8 °F 24.8 °F 43% 30.00 in 10.0 mi SE 16.1 mph 23.0 mph N/A   Clear
3:14 PM 48.2 °F - 24.8 °F 40% 29.99 in 10.0 mi SSE 18.4 mph 27.6 mph N/A   Clear
3:34 PM 46.4 °F 39.5 °F 24.8 °F 43% 29.99 in 10.0 mi SE 17.3 mph 26.5 mph N/A   Clear
3:54 PM 46.4 °F 39.5 °F 24.8 °F 43% 29.98 in 10.0 mi SSE 17.3 mph 25.3 mph N/A   Clear
4:14 PM 46.4 °F 39.2 °F 24.8 °F 43% 29.98 in 10.0 mi SSE 18.4 mph 23.0 mph N/A   Clear
4:34 PM 44.6 °F 37.4 °F 26.6 °F 49% 29.98 in 10.0 mi SSE 16.1 mph 21.9 mph N/A   Clear
4:54 PM 44.6 °F 37.4 °F 26.6 °F 49% 29.97 in 10.0 mi SE 16.1 mph 24.2 mph N/A   Mostly Cloudy
5:14 PM 44.6 °F 37.4 °F 26.6 °F 49% 29.96 in 10.0 mi SE 16.1 mph 26.5 mph N/A   Mostly Cloudy
5:34 PM 44.6 °F 38.1 °F 26.6 °F 49% 29.96 in 10.0 mi SE 13.8 mph 26.5 mph N/A   Mostly Cloudy
5:54 PM 44.6 °F 36.6 °F 26.6 °F 49% 29.96 in 10.0 mi SSE 19.6 mph 26.5 mph N/A   Overcast
6:14 PM 44.6 °F 37.8 °F 26.6 °F 49% 29.96 in 10.0 mi SSE 15.0 mph 25.3 mph N/A   Overcast
6:34 PM 44.6 °F 36.9 °F 26.6 °F 49% 29.96 in 10.0 mi SSE 18.4 mph 27.6 mph N/A   Overcast
6:54 PM 44.6 °F 35.5 °F 26.6 °F 49% 29.96 in 10.0 mi SSE 25.3 mph 29.9 mph N/A   Scattered Clouds
7:14 PM 44.6 °F 36.4 °F 26.6 °F 49% 29.95 in 10.0 mi SSE 20.7 mph 27.6 mph N/A   Scattered Clouds
7:34 PM 44.6 °F 36.6 °F 26.6 °F 49% 29.95 in 10.0 mi SSE 19.6 mph 26.5 mph N/A   Mostly Cloudy
7:54 PM 44.6 °F 36.9 °F 26.6 °F 49% 29.94 in 10.0 mi SSE 18.4 mph 29.9 mph N/A   Overcast
8:14 PM 44.6 °F 36.6 °F 26.6 °F 49% 29.94 in 10.0 mi SSE 19.6 mph 33.4 mph N/A   Overcast
8:34 PM 44.6 °F 36.4 °F 26.6 °F 49% 29.94 in 10.0 mi SSE 20.7 mph 28.8 mph N/A   Overcast
8:54 PM 44.6 °F 36.1 °F 26.6 °F 49% 29.93 in 10.0 mi SSE 21.9 mph 36.8 mph N/A   Overcast
9:14 PM 46.4 °F 39.2 °F 24.8 °F 43% 29.94 in 10.0 mi SSE 18.4 mph 31.1 mph N/A   Overcast
9:34 PM 46.4 °F 38.1 °F 24.8 °F 43% 29.93 in 10.0 mi SSE 24.2 mph 29.9 mph N/A   Overcast
9:54 PM 44.6 °F 36.4 °F 24.8 °F 46% 29.93 in 10.0 mi SSE 20.7 mph 32.2 mph N/A   Mostly Cloudy
10:14 PM 46.4 °F 38.5 °F 24.8 °F 43% 29.93 in 10.0 mi SSE 21.9 mph 33.4 mph N/A   Mostly Cloudy
10:34 PM 46.4 °F 38.5 °F 23.0 °F 40% 29.93 in 10.0 mi SSE 21.9 mph 34.5 mph N/A   Overcast
10:54 PM 46.4 °F 38.3 °F 21.2 °F 37% 29.93 in 10.0 mi SSE 23.0 mph 28.8 mph N/A   Overcast
11:14 PM 46.4 °F 38.1 °F 21.2 °F 37% 29.92 in 10.0 mi SSE 24.2 mph 35.7 mph N/A   Overcast
11:34 PM 46.4 °F 38.3 °F 21.2 °F 37% 29.93 in 10.0 mi SSE 23.0 mph 34.5 mph N/A   Overcast
11:54 PM 46.4 °F 39.2 °F 21.2 °F 37% 29.93 in 10.0 mi South 18.4 mph 34.5 mph N/A   Overcast